www.pogodaiklimat.ru
ПОГОДА в Армении

Архив погоды в Армении (Колумбия)

Время
(UTC), дата
22 25.01
23 25.01
00 26.01
01 26.01
02 26.01
03 26.01
04 26.01
11 26.01
12 26.01
13 26.01
14 26.01
15 26.01
16 26.01
17 26.01
18 26.01
19 26.01
20 26.01
21 26.01
22 26.01
23 26.01
00 27.01
01 27.01
02 27.01
03 27.01
04 27.01
11 27.01
12 27.01
13 27.01
14 27.01
15 27.01
16 27.01
17 27.01
18 27.01
19 27.01
20 27.01
21 27.01
22 27.01
23 27.01
00 28.01
01 28.01
03 28.01
04 28.01
11 28.01
12 28.01
13 28.01
14 28.01
15 28.01
16 28.01
17 28.01
18 28.01
19 28.01
20 28.01
21 28.01
22 28.01
23 28.01
00 29.01
01 29.01
02 29.01
03 29.01
04 29.01
11 29.01
12 29.01
13 29.01
14 29.01
15 29.01
16 29.01
17 29.01
18 29.01
19 29.01
20 29.01
21 29.01
22 29.01
23 29.01
00 30.01
01 30.01
02 30.01
03 30.01
04 30.01
11 30.01
12 30.01
13 30.01
14 30.01
15 30.01
16 30.01
17 30.01
18 30.01
19 30.01
20 30.01
21 30.01
22 30.01
23 30.01
00 31.01
01 31.01
02 31.01
03 31.01
04 31.01
11 31.01
12 31.01
13 31.01
14 31.01
15 31.01
16 31.01
17 31.01
18 31.01
19 31.01
20 31.01
21 31.01
22 31.01
00 1.02
01 1.02
02 1.02
03 1.02
04 1.02
11 1.02
12 1.02
13 1.02
14 1.02
15 1.02
16 1.02
17 1.02
18 1.02
19 1.02
20 1.02
21 1.02
22 1.02
23 31.02
Ветер
(напр.,м/с)
Видим. Явления Облачность Т
(С)
Тd
(С)
f
(%)
Тe
(С)
Тes
(С)
Комфортность P
(гПа)
Po
(гПа)
Тmin
(С)
Tmax
(С)
R
(мм)
R24
(мм)
S
(см)
ЮВ 2 10 км 5/5 750 м
[Ac]
+28.0 +18.0 55 +33 +33 очень
душно
1012.0 874.4
Ю 2 10 км 5/5 750 м
[Ac]
+26.0 +17.0 58 +30 +30 душно 1013.0 875.2
З 2 15 км 8/5 750 м
[Cu hum Ac trans]
+24.1 +17.4 66 +28 +28 душно 1014.0 876.5 +29.0
В 2 10 км 5/5 750 м
[Ac]
+22.0 +18.0 78 +27 +27 душно 1015.0 876.7
штиль 0 10 км 5/5 750 м
[Ac]
+21.0 +18.0 83 1016.0 877.9
С 2 12 км 8/5 600 м
[Cu hum Ac trans]
+20.0 +17.4 85 +23 +23 комфорт 1017.0 879.5
штиль 0 10 км 5/5 600 м
[Ac]
+19.0 +17.0 88 1018.0 879.0
штиль 0 н/о туман, небо видно 8/5 450 м
[Ac]
+16.0 +16.0 100 1016.0 878.2
штиль 0 9000 м местами туман поземный 5/4 500 м
[Sc Ac trans]
+17.1 +16.3 94 +17 +18 1016.0 878.7 +16.2
штиль 0 н/о 5/5 510 м
[Ac]
+19.0 +17.0 88 1018.0 879.3
штиль 0 н/о 8/8 510 м +21.0 +18.0 83 1018.0 879.6
штиль 0 10 км 8/8 600 м +23.0 +19.0 78 1018.0 879.9
штиль 0 10 км 5/5 660 м +25.0 +19.0 69 1017.0 879.3
нст 2 10 км 5/5 690 м +25.0 +18.0 65 +29 +39 душно 1015.0 877.6
нст 2 15 км 5/5 750 м
[Cu hum]
+27.4 +18.4 58 +32 +41 очень
душно
1015.0 877.5
Ю 2 10 км 5/5 750 м +28.0 +18.0 55 +33 +40 очень
душно
1014.0 875.8
ЮЗ 2 10 км 5/5 750 м +27.0 +17.0 54 +31 +35 душно 1013.0 874.9
СЗ 3 15 км 4/4 750 м
[Cu hum]
+28.8 +17.0 48 +33 +35 очень
душно
1011.0 874.0
З 2 10 км 5/5 750 м +28.0 +17.0 51 +32 +32 душно 1012.0 874.1
штиль 0 10 км 5/5 690 м +28.0 +17.0 51 1013.0 874.9
З 2 15 км 6/6 750 м
[Sc diur, vesp]
+24.6 +18.0 67 +29 +29 душно 1013.0 875.5 +29.1
штиль 0 10 км 5/5 750 м
[Ac]
+23.0 +18.0 73 1014.0 875.8
Ю 2 10 км 5/5 750 м +22.0 +18.0 78 +27 +27 душно 1015.0 877.0
штиль 0 15 км 4/4 750 м
[Sc]
+20.4 +17.6 84 +24 +24 комфорт 1016.0 878.6
СВ 2 10 км 5/5 750 м +19.0 +17.0 88 +21 +21 комфорт 1020.0 877.0
штиль 0 10 км 5/5 660 м +17.0 +16.0 94 1016.0 877.6
штиль 0 12 км 6/6 660 м
[Sc]
+16.7 +15.7 94 +17 +17 1017.0 879.4 +16.2
штиль 0 10 км 5/5 660 м
[Ac]
+18.0 +16.0 88 1018.0 879.3
штиль 0 10 км 5/5 660 м
[Ac]
+22.0 +17.0 73 1018.0 879.3
ЮЗ 2 10 км 8/5 660 м
[Cu hum Ac cast]
+22.9 +17.1 69 +28 +35 душно 1018.0 880.6
нст 2 10 км 5/5 690 м
[Ac]
+25.0 +18.0 65 +29 +38 душно 1017.0 878.5
нст 2 10 км 5/5 690 м +27.0 +19.0 62 +32 +42 очень
душно
1016.0 877.6
нст 2 15 км 8/5 750 м
[Cu hum Ac As]
+27.9 +17.5 55 +33 +41 очень
душно
1015.0 877.5
Ю 2 10 км 5/5 750 м
[Ac]
+28.0 +17.0 51 +32 +39 душно 1013.0 874.7
штиль 0 10 км 5/5 750 м
[Ac]
+28.0 +18.0 55 1013.0 874.7
Ю 3 8000 м мгла 8/5 750 м
[Cu hum Ac trans]
+28.8 +18.0 51 +33 +35 очень
душно
1012.0 875.0
Ю 2 н/о 5/5 600 м
[Ac]
+28.0 +18.0 55 +33 +33 очень
душно
1012.0 874.4
штиль 0 н/о 5/5 600 м
[Ac]
+27.0 +18.0 58 1013.0 874.9
С 2 12 км мгла 8/5 600 м
[Sc Ac trans]
+23.9 +16.7 64 +27 +27 жарко 1014.0 877.0 +29.0
штиль 0 10 км 5/5 660 м
[Ac]
+22.0 +17.0 73 1015.0 876.7
штиль 0 12 км 8/4 600 м
[Sc As op]
+19.5 +17.2 87 +22 +22 комфорт 1016.0 879.0
СВ 2 10 км 5/5 600 м
[Ac]
+19.0 +17.0 88 +21 +21 комфорт 1016.0 877.9
штиль 0 н/о туман, небо видно 2/2 510 м +15.0 +15.0 100 1015.0 877.6
штиль 0 10 км местами туман поземный 3/3 500 м
[Sc]
+15.4 +14.8 100 +15 +16 1016.0 879.0 +15.3
штиль 0 10 км 2/2 510 м +18.0 +16.0 88 1017.0 879.0
штиль 0 10 км 2/2 600 м +21.0 +17.0 78 1018.0 879.3
нст 2 15 км 3/3 600 м
[Cu hum]
+23.1 +17.8 72 +29 +38 очень
душно
1017.0 880.2
штиль 0 10 км 5/5 660 м +24.0 +17.0 65 1017.0 878.7
нст 2 10 км 2/2 690 м +26.0 +18.0 61 +30 +45 душно 1016.0 878.2
нст 2 15 км 3/3 750 м
[Cu hum]
+26.7 +18.0 58 +32 +46 очень
душно
1015.0 878.2
штиль 0 10 км 2/2 750 м +28.0 +17.0 51 1013.0 874.9
Ю 3 10 км 2/2 750 м +29.0 +18.0 51 +33 +40 очень
душно
1012.0 874.1
СЗ 2 15 км 3/3 800 м
[Cu hum]
+28.8 +17.7 51 +33 +36 очень
душно
1012.0 874.3
штиль 0 10 км 2/2 810 м +30.0 +18.0 49 1011.0 873.2
ЮЗ 2 10 км 2/2 810 м +27.0 +17.0 54 +31 +31 душно 1012.0 874.1
З 2 15 км 3/3 750 м
[Cu hum]
+24.6 +17.8 66 +29 +29 душно 1013.0 875.9 +29.6
штиль 0 10 км 2/2 750 м +22.0 +18.0 78 1014.0 875.8
штиль 0 10 км 5/5 690 м +21.0 +18.0 83 1015.0 876.7
штиль 0 15 км 4/4 700 м
[Cu hum]
+20.1 +17.5 88 +23 +23 комфорт 1015.0 877.9
штиль 0 10 км 5/5 690 м +19.0 +17.0 88 1016.0 877.6
С 2 10 км 5/5 600 м +16.0 +15.0 94 +16 +16 1015.0 876.4
штиль 0 15 км 4/4 750 м
[Sc]
+16.0 +15.0 94 +16 +17 1015.0 878.2 +15.6
штиль 0 10 км 5/5 750 м +18.0 +16.0 88 1017.0 878.2
штиль 0 10 км 2/2 750 м +21.0 +18.0 83 1017.0 878.7
С 2 15 км 3/3 750 м
[Cu hum]
+22.8 +17.9 73 +28 +40 душно 1016.0 879.1
Ю 2 10 км 5/5 750 м +25.0 +19.0 69 +30 +39 душно 1016.0 877.6
штиль 0 10 км 5/5 750 м +25.0 +18.0 65 1016.0 877.6
нст 2 15 км 4/4 750 м
[Cu hum]
+25.7 +17.6 61 +30 +39 душно 1014.0 877.2
нст 2 10 км 2/2 750 м +28.0 +18.0 55 +33 +44 очень
душно
1013.0 875.5
нст 2 10 км 2/2 750 м +29.0 +18.0 51 +33 +41 очень
душно
1013.0 875.2
нст 3 15 км 3/3 750 м
[Cu med, cong]
+28.8 +17.4 48 +33 +36 очень
душно
1013.0 875.3
З 2 10 км ливневой дождь 5/5 690 м
[Cb]
+29.0 +17.0 48 +33 +33 очень
душно
1012.0 874.9
З 3 10 км ливневой дождь 8/8 690 м
[Cb]
+26.0 +18.0 61 +30 +30 душно 1013.0 875.5
Ю 7 3000 м сильн. гроза, ливневой дождь 9/9 300 м
[Cb cap]
+22.5 +18.4 73 +28 +28 душно 1015.0 878.0 +29.5 0.0
штиль 0 10 км 5/5 600 м +20.0 +19.0 94 1016.0 877.6
штиль 0 10 км 5/5 660 м
[Ac]
+20.0 +19.0 94 1016.0 877.6
штиль 0 15 км {гроза, дождь} 9/5 660 м
[Sc Ac As]
+19.7 +18.7 94 +22 +22 комфорт 1017.0 880.2
штиль 0 10 км 5/5 660 м
[Ac]
+19.0 +19.0 100 1017.0 878.5
штиль 0 10 км туман, небо видно 5/5 480 м
[Ac]
+17.0 +17.0 100 1016.0 877.6
штиль 0 8000 м туман на расстоянии 9/5 500 м
[Sc As op]
+17.3 +16.7 96 +17 +17 1017.0 879.4 +16.3 4
С 2 н/о туман, небо видно 5/5 600 м +19.0 +17.0 88 +21 +23 комфорт 1018.0 879.0
штиль 0 10 км 5/5 660 м +22.0 +18.0 78 1018.0 879.0
штиль 0 12 км 5/5 660 м
[Cu hum]
+24.2 +19.3 74 +29 +39 душно 1019.0 881.4
ЮВ 2 10 км 8/8 750 м +25.0 +19.0 69 +30 +33 душно 1019.0 879.9
З 2 10 км 8/8 750 м +26.0 +18.0 61 +30 +34 душно 1017.0 878.5
Ю 2 12 км 8/5 750 м
[Cu hum Ac trans]
+26.6 +17.7 58 +32 +40 очень
душно
1016.0 879.0
З 2 10 км 5/5 660 м +27.0 +18.0 58 +32 +39 очень
душно
1015.0 877.6
нст 2 10 км ливневой дождь 5/5 660 м
[Cb]
+29.0 +19.0 55 +34 +39 очень
душно
1013.0 875.8
З 2 8000 м осадки на расстоянии 9/9 660 м
[Cb calv]
+27.8 +17.3 51 +32 +33 душно 1013.0 875.6
В 2 н/о ливневой дождь 5/5 660 м
[Cb]
+26.0 +18.0 61 +30 +31 душно 1013.0 875.2
С 2 10 км ливневой дождь 8/8 750 м
[Ac Cb]
+25.0 +17.0 61 +29 +29 душно 1014.0 875.8
штиль 0 12 км осадки на расстоянии 10/8 660 м
[Sc As trans]
+23.4 +17.4 69 +29 +29 душно 1015.0 877.4 +28.9
штиль 0 10 км 8/5 600 м
[Ac]
+22.0 +18.0 78 1015.0 877.3
нст 2 10 км 5/2 510 м
[Ac]
+21.0 +18.0 83 +26 +26 душно 1016.0 878.2
штиль 0 15 км 6/3 450 м
[Sc As trans]
+19.7 +17.5 88 +22 +22 комфорт 1017.0 879.5
штиль 0 10 км 5/5 450 м
[Ac]
+20.0 +18.0 88 1017.0 878.7
штиль 0 10 км 8/8 600 м
[Ac]
+18.0 +17.0 94 1017.0 878.5
штиль 0 12 км 8/5 600 м
[Sc Ac trans]
+18.2 +17.6 96 +19 +19 1017.0 880.2 +17.4
штиль 0 10 км 5/5 600 м
[Ac]
+19.0 +18.0 94 1018.0 879.3
штиль 0 н/о 5/5 600 м
[Ac]
+21.0 +18.0 83 1019.0 880.2
штиль 0 9000 м мгла 6/6 600 м
[Cu hum]
+23.5 +18.7 74 +28 +36 душно 1019.0 882.1
штиль 0 10 км 5/5 600 м +25.0 +19.0 69 1019.0 879.9
штиль 0 10 км 8/8 690 м +25.0 +18.0 65 1017.0 878.2
нст 2 15 км 5/5 660 м
[Cu hum]
+27.0 +19.0 62 +32 +41 очень
душно
1016.0 877.6
СЗ 3 10 км 2/2 750 м +27.0 +18.0 58 +32 +41 очень
душно
1014.0 876.1
З 2 10 км 5/5 750 м +29.0 +18.0 51 +33 +38 очень
душно
1014.0 875.8
штиль 0 3000 м осадки на расстоянии 6/6 750 м
[Cu hum]
+27.8 +17.7 55 +33 +34 очень
душно
1013.0 875.4
штиль 0 10 км 8/8 750 м +24.0 +17.0 65 1012.0 874.4
З 2 15 км 4/4 750 м
[Sc diur, vesp]
+23.1 +18.0 73 +28 +28 душно 1014.0 876.8 +28.9
штиль 0 10 км 5/5 750 м +22.0 +18.0 78 1015.0 876.4
штиль 0 10 км 5/5 750 м +21.0 +18.0 83 1015.0 877.0
штиль 0 15 км 6/4 750 м
[Sc Ac trans]
+20.4 +17.8 88 +24 +24 комфорт 1016.0 878.6
штиль 0 10 км 5/5 750 м +19.0 +17.0 88 1016.0 877.9
штиль 0 н/о туман, небо видно 5/5 450 м
[Ac]
+17.0 +16.0 94 1017.0 878.7
штиль 0 8000 м туман на расстоянии 8/8 600 м
[Sc]
+16.6 +16.0 96 +16 +17 1017.0 880.2 +16.3
штиль 0 н/о 5/5 600 м +19.0 +17.0 88 1018.0 879.6
штиль 0 10 км 2/2 600 м +22.0 +18.0 78 1019.0 880.2
нст 2 15 км 3/3 600 м
[Cu hum]
+23.1 +18.0 73 +28 +40 душно 1018.0 881.2
штиль 0 10 км 5/5 660 м +25.0 +19.0 69 1017.0 879.3
нст 2 10 км 5/5 690 м +26.0 +18.0 61 +30 +40 душно 1017.0 879.0
С 2 15 км 5/5 700 м
[Cu hum]
+26.6 +16.7 54 +31 +40 душно 1016.0 878.9
З 3 10 км 5/5 690 м +28.0 +17.0 51 +32 +38 душно 1015.0 877.0
З 2 10 км 5/5 750 м +29.0 +17.0 48 +33 +38 очень
душно
1013.0 875.2
штиль 0 15 км 5/5 600 м
[Cb cap]
+29.4 +16.8 47 +33 +36 душно 1013.0 875.7
штиль 0 10 км 5/5 750 м +28.0 +15.0 45 1013.0 875.2
штиль 0 10 км 8/8 750 м +25.0 +18.0 65 1013.0 875.2
Местоположение метеостанции Армения (Колумбия): широта 4.50 долгота -75.71 высота над уровнем моря 1219 м.
В архиве по умолчанию представлена погода в Армении за последнюю неделю. Архивные данные за месяц целиком и за предыдущие месяцы, начиная с января 2011 года, Вы можете получить, выбрав интересующий диапазон дат из раскрывающегося списка и нажав кнопку "Найти!".
*Определитесь, кто Вы:
Внимание! Время в таблицах - всемирное. Для получения местного времени необходимо прибавить поправку, которая равна -5 ч.
Смотрите также архив погоды в соседних городах и на ближайших метеорологических станциях:
Партнеры нашего сайта:      
Пояснения к столбцам:
  • Ветер - указаны скорость ветра в м/с - средняя за 10 мин, порывы в срок и между сроками (в фигурных скобках) и направление, откуда дует ветер: С - северный,
  • СВ - северо-восточный, В - восточный, ЮВ - юго-восточный, Ю - южный, ЮЗ - юго-западный, З - западный, СЗ - северо-западный.
  • Видимость - горизонтальная дальность видимости в метрах или километрах. При видимости от 1 до 10 км при отсутствии осадков обычно наблюдается дымка, при ухудшении видимости до 1 км и менее - туман. В сухую погоду видимость может ухудшаться дымом, пылью или мглою.
  • Явления - указаны атмосферные явления, наблюдавшиеся в срок или в последний час перед сроком; фигурными скобками обозначены явления, наблюдавшиеся между сроками (за 1-3 часа до срока); квадратными скобками обозначены град или гололедные отложения с указанием их диаметра в мм.
  • Облачность - указаны через наклонную черту общая и нижняя облачность в баллах и высота нижней границы облаков в метрах; квадратными скобками обозначены формы облаков: Ci - перистые, Cs - перисто-слоистые, Cc - перисто-кучевые, Ac - высококучевые, As - высокослоистые, Sc - слоисто-кучевые, Ns - слоисто-дождевые, Cu - кучевые, Cb - кучево-дождевые. Подробнее классификацию облаков см. в Атласе облаков (PDF).
  • T - Температура воздуха - температура, измеренная на высоте 2 м над землей.
  • Td - Температура точки росы - температура, при понижении до которой содержащийся в воздухе водяной пар достигнет насыщения.
  • f - Относительная влажность воздуха - влажноcть воздуха, измеренная на высоте 2 м над землей.
  • Te - Эффективная температура - температура, которую ощущает одетый по сезону человек в тени. Характеристика душности погоды. При расчете учитывается влияние влажности воздуха и скорости ветра на теплоощущения человека.
  • Tes - Эффективная температура на солнце - температура, которую ощущает человек, с поправкой на солнечный нагрев. Характеристика знойности погоды. Зависит от высоты солнца над горизонтом, облачности и скорости ветра. Ночью, в пасмурную погоду, а также при ветре 12 м/с и более поправка равна нулю.
  • P - Атмосферное давление - приведенное к уровню моря атмосферное давление.
  • Po - Атмосферное давление - измеренное на уровне метеостанции атмосферное давление.
  • Tmin - Минимальная температура - минимум температуры воздуха на высоте 2 м над землей.
  • Tmax - Максимальная температура - максимум температуры воздуха на высоте 2 м над землей.
  • R - Количество осадков - Количество выпавших осадков за период времени, мм. При наведении курсора мыши на число - период времени, за который выпало указанное количество осадков.
  • R24 - Количество осадков - Количество выпавших осадков за 24 часа, мм.
  • S - Снежный покров - Высота снежного покрова, см. При наведении курсора мыши на число - состояние снежного покрова и степень покрытия местности в баллах.